Weather History for Evansville, IN

Change the Weather History Date:

Monday, October 17, 2011

  Actual Average Record
Temperature  
Mean Temperature 59 °F 57 °F  
Max Temperature 69 °F 70 °F 86 °F (1950)
Min Temperature 48 °F 45 °F 28 °F (1948)
Degree Days  
Heating Degree Days 6 8  
Month to date heating degree days 54 111  
Since 1 July heating degree days 100 158  
Cooling Degree Days 0 1  
Month to date cooling degree days 13 24  
Year to date cooling degree days 1643 1390  
Growing Degree Days 8 (Base 50)    
Moisture  
Dew Point 37 °F    
Average Humidity 53    
Maximum Humidity 80    
Minimum Humidity 26    
Precipitation  
Precipitation 0.00 in 0.10 in 1.87 in (1937)
Month to date precipitation 1.02 1.72  
Year to date precipitation 54.20 35.69  
Snow  
Snow 0.00 in 0.00 in 0.00 in (2002)
Month to date snowfall 0.0 0.0  
Since 1 July snowfall 0.0 0.0  
Since 1 September snowfall 0.0 0.0  
Snow Depth 0.00 in    
Sea Level Pressure  
Sea Level Pressure 29.94 in    
Wind  
Wind Speed 3 mph (North)    
Max Wind Speed 15 mph    
Max Gust Speed 20 mph    
Visibility 10 miles    
Events      
T = Trace of Precipitation, MM = Missing Value Source: NWS Daily Summary

Daily Weather History Graph

Daily Weather History Graph

Search for Another Location

Airport:

Trip Planner

Search our weather history database for the weather conditions in past years. The results will help you decide how hot, cold, wet, or windy it might be!

Date:

Astronomy

Oct. 17, 2011 Rise Set
Actual Time 7:00 AM CDT 6:09 PM CDT
Civil Twilight 6:33 AM CDT 6:36 PM CDT
Nautical Twilight 6:03 AM CDT 7:07 PM CDT
Astronomical Twilight 5:32 AM CDT 7:37 PM CDT
Moon 9:54 PM CDT (10/17) 12:02 PM CDT (10/17)
Length of Visible Light 12h 02m
Length of Day
11h 09m
Waning Gibbous, 74% of the Moon is Illuminated
Oct 17
Waning Gibbous
Oct 19
Last Quarter
Oct 26
New
Nov 2
First Quarter
Nov 10
Full

Hourly Weather History & Observations

Time (CDT) Temp. Dew Point Humidity Pressure Visibility Wind Dir Wind Speed Gust Speed Precip Events Conditions
12:54 AM 57.0 °F 39.9 °F 53% 29.97 in 10.0 mi NNW 6.9 mph - N/A   Clear
1:54 AM 55.9 °F 37.9 °F 51% 29.98 in 10.0 mi North 3.5 mph - N/A   Partly Cloudy
2:54 AM 55.9 °F 39.9 °F 55% 29.99 in 10.0 mi NW 4.6 mph - N/A   Overcast
3:54 AM 55.0 °F 39.9 °F 57% 29.99 in 10.0 mi Calm Calm - N/A   Mostly Cloudy
4:54 AM 53.1 °F 42.1 °F 66% 29.99 in 10.0 mi Calm Calm - N/A   Mostly Cloudy
5:54 AM 53.1 °F 44.1 °F 71% 30.00 in 10.0 mi Calm Calm - N/A   Overcast
6:54 AM 48.9 °F 41.0 °F 74% 30.00 in 10.0 mi Calm Calm - N/A   Partly Cloudy
7:54 AM 48.9 °F 43.0 °F 80% 30.01 in 10.0 mi Calm Calm - N/A   Clear
8:54 AM 55.9 °F 42.1 °F 60% 30.01 in 10.0 mi Calm Calm - N/A   Clear
9:54 AM 60.8 °F 35.6 °F 39% 30.01 in 10.0 mi NNE 4.6 mph - N/A   Clear
10:54 AM 63.0 °F 32.0 °F 31% 30.00 in 10.0 mi Calm Calm - N/A   Clear
11:54 AM 66.0 °F 32.0 °F 28% 29.97 in 10.0 mi Calm Calm - N/A   Clear
12:54 PM 66.9 °F 30.9 °F 26% 29.94 in 10.0 mi North 3.5 mph - N/A   Clear
1:54 PM 66.0 °F 30.0 °F 26% 29.91 in 10.0 mi Calm Calm - N/A   Scattered Clouds
2:54 PM 69.1 °F 33.1 °F 26% 29.89 in 10.0 mi Calm Calm - N/A   Clear
3:54 PM 66.9 °F 32.0 °F 27% 29.89 in 10.0 mi NNW 3.5 mph - N/A   Scattered Clouds
4:54 PM 64.9 °F 35.1 °F 33% 29.89 in 10.0 mi North 8.1 mph - N/A   Mostly Cloudy
5:54 PM 61.0 °F 35.1 °F 38% 29.91 in 10.0 mi North 5.8 mph - N/A   Mostly Cloudy
6:54 PM 57.0 °F 36.0 °F 45% 29.90 in 10.0 mi NNE 5.8 mph - N/A   Partly Cloudy
7:54 PM 55.4 °F 37.4 °F 51% 29.88 in 10.0 mi NNE 5.8 mph - N/A   Clear
8:54 PM 54.0 °F 37.9 °F 55% 29.88 in 10.0 mi NE 3.5 mph - N/A   Mostly Cloudy
9:54 PM 57.2 °F 35.6 °F 44% 29.88 in 10.0 mi North 9.2 mph - N/A   Mostly Cloudy
10:54 PM 54.0 °F 37.0 °F 53% 29.87 in 10.0 mi North 6.9 mph - N/A   Clear
11:54 PM 53.1 °F 37.0 °F 55% 29.87 in 10.0 mi North 6.9 mph - N/A   Clear